Regional Weather Roundup
Issued by NWS

Home | Current Version | Previous Version | Graphics & Text | Print | Product List | Glossary On
Versions: 1 2 3 4 5 6 7 8 9 10 11 12 13 14 15 16 17 18 19 20 21 22 23 24 25 26 27 28 29 30 31 32 33 34 35 36 37 38 39 40 41 42 43 44 45 46 47 48 49 50
000
ASUS43 KMPX 161410
RWRMN
WEATHER ROUNDUP FOR MINNESOTA
NATIONAL WEATHER SERVICE TWIN CITIES/CHANHASSEN MN
900 AM CDT MON OCT 16 2017


NOTE: "FAIR" INDICATES FEW OR NO CLOUDS BELOW 12,000 FEET WITH NO
SIGNIFICANT WEATHER AND/OR OBSTRUCTIONS TO VISIBILITY. N/A MEANS
CURRENT SKY AND/OR WEATHER CONDITIONS ARE NOT AVAILABLE.

MNZ060>063-068>070-161500-
   Twin Cities Metro

CITY           SKY/WX    TMP DP  RH WIND       PRES   REMARKS
TWIN CITIES    MOSUNNY   42  37  82 SW6       30.23S
ST PAUL        SUNNY     43  38  82 VRB3      30.24S
CRYSTAL        SUNNY     40  36  86 S5        30.20F
BLAINE         SUNNY     43  43 100 SW6       30.21F
LAKEVILLE      SUNNY     39  37  93 SW3       30.24R
EDEN PRAIRIE   SUNNY     40  37  89 SW5       30.22S
SOUTH ST PAUL  SUNNY     41  38  88 CALM      30.23S
LAKE ELMO      FAIR      41  39  93 S5        30.23F
$$
MNZ001>005-007-008-013>017-022>024-027-028-161500-
   Northwest Minnesota

CITY           SKY/WX    TMP DP  RH WIND       PRES   REMARKS
BEMIDJI        SUNNY     38  32  78 S5        30.07F
HALLOCK        CLOUDY    37  30  75 S14       29.94F
ROSEAU           N/A     37  32  81 S10       29.98F
WARROAD        CLOUDY    37  32  81 SW9       29.98F
THIEF RVR FALL SUNNY     39  32  76 S12       30.03F
CROOKSTON      SUNNY     37  30  75 S14       30.03F
FOSSTON        SUNNY     39  30  70 S14       30.07F
DETROIT LAKES  SUNNY     41  36  81 S8        30.11F
MOORHEAD       SUNNY     36  30  80 S12       30.09F
PARK RAPIDS    SUNNY     37  34  89 SW6       30.11F
MAHNOMEN       FAIR      38  32  81 S12       30.08F
$$
MNZ006-009>011-018-025>026-161500-
   North Central Minnesota

CITY           SKY/WX    TMP DP  RH WIND       PRES   REMARKS
BAUDETTE       CLOUDY    34  31  88 SW8       30.01F WCI  27
FLAG ISLAND    PTSUNNY   43  36  75 S12       29.96F
INTL FALLS     CLOUDY    35  32  88 SW5       30.04F WCI  31
WASKISH        SUNNY     37  34  87 S3        30.05F
BIG FORK       SUNNY     36  34  93 CALM      30.08F
LONGVILLE      CLOUDY    37  36  93 CALM      30.11F
GRAND RAPIDS   CLOUDY    39  36  89 S6        30.12F
CRANE LAKE     CLOUDY    34  34 100 S5        30.09F WCI  30
ORR            MOSUNNY   36  34  93 S5        30.06F
COOK           MOSUNNY   37  36  93 S5        30.09F
WALKER         FAIR      38  33  84 SW7       30.10S
$$
MNZ012-019>021-037-161500-
   Northeast Minnesota

CITY           SKY/WX    TMP DP  RH WIND       PRES   REMARKS
DULUTH         MOSUNNY   42  37  82 W8        30.13F
ELY            CLOUDY    37  36  93 SW3       30.10S
HIBBING        SUNNY     31  31 100 CALM      30.12S
EVELETH        SUNNY     32  32 100 CALM      30.12S
DULUTH HARBOR  MOSUNNY   43  37  81 SW12      30.15F
TWO HARBORS    MOSUNNY   46  39  76 W8        30.11F
GRAND MARAIS     N/A     46  37  71 VRB5      30.11S
G MARAIS ARPRT CLOUDY    39  30  70 S5        30.08S
$$
MNZ029>031-032-039>041-046>048-054>057-064-161500-
   West Central Minnesota

CITY           SKY/WX    TMP DP  RH WIND       PRES   REMARKS
FERGUS FALLS   SUNNY     36  36 100 S8        30.15F
WHEATON        SUNNY     45  30  57 S10       30.15F
MORRIS         SUNNY     37  34  87 S7        30.15F
ALEXANDRIA     SUNNY     41  34  76 SW10      30.17S
ELBOW LAKE     FAIR      37  34  89 S8        30.15F
WADENA         SUNNY     34  34 100 S3        30.13F
GLENWOOD       SUNNY     36  36 100 SW6       30.18S
APPLETON       SUNNY     39  34  81 CALM      30.18F
BENSON         SUNNY     36  32  87 S3        30.20F
ORTONVILLE     SUNNY     41  34  75 NE3       30.16F
MADISON        SUNNY     41  36  81 S5        30.18F
WILLMAR        FAIR      36  36 100 CALM      30.22S
$$
MNZ033>034-036-042>043-049>051-058-059-161500-
   Central Minnesota

CITY           SKY/WX    TMP DP  RH WIND       PRES   REMARKS
ST CLOUD       SUNNY     36  36 100 S3        30.19F
SAUK CENTRE    FAIR      37  34  89 CALM      30.18S
PAYNESVILLE    SUNNY     37  36  96 CALM      30.20F
AITKIN         SUNNY     37  36  93 S3        30.13S
PINE RIVER     SUNNY     30  28  93 CALM      30.16S
BRAINERD       SUNNY     35  34  96 SW3       30.15S
STAPLES        SUNNY     34  34 100 S3        30.14F
LONG PRAIRIE   FAIR      36  34  93 S5        30.17S
LITTLE FALLS   SUNNY     34  32  93 CALM      30.17F
LITCHFIELD     SUNNY     41  37  87 CALM      30.22S
BUFFALO        SUNNY     38  36  91 CALM      30.22S
MAPLE LAKE     SUNNY     40  38  93 CALM      30.22R
HUTCHINSON     CLOUDY    39  36  87 CALM      30.23S
$$
MNZ037-044-045-052-053-161500-
   East Central Minnesota

CITY           SKY/WX    TMP DP  RH WIND       PRES   REMARKS
PRINCETON      SUNNY     39  37  93 S5        30.19S
MORA           SUNNY     36  36 100 SW5       30.19F
CAMBRIDGE      SUNNY     39  39 100 SW5       30.20R
RUSH CITY      SUNNY     37  37  97 S3        30.20S
MOOSE LAKE     SUNNY     32  32 100 CALM      30.14F FOG
HINCKLEY       FAIR      36  36 100 CALM      30.18S
CLOQUET        SUNNY     39  36  87 SW5       30.14S
MCGREGOR       SUNNY     37  37 100 S5        30.15F
$$
MNZ071>073-080-081-089-090-097-098-161500-
   Southwest Minnesota

CITY           SKY/WX    TMP DP  RH WIND       PRES   REMARKS
MONTEVIDEO     SUNNY     43  37  81 SW6       30.20S
GRANITE FALLS  SUNNY     38  35  86 S6        30.22F
CANBY          SUNNY     49  32  51 SW10      30.19F
MARSHALL       SUNNY     44  33  65 S9        30.21F
REDWOOD FALLS  SUNNY     39  33  79 SW6       30.22S
OLIVIA         SUNNY     36  32  87 S3        30.21S
PIPESTONE      SUNNY     39  34  81 S6        30.22S
WORTHINGTON    SUNNY     43  35  73 SW6       30.26R
JACKSON        SUNNY     37  34  87 CALM      30.26S
TRACY          SUNNY     46  34  64 SW10      30.22F
SLAYTON        SUNNY     42  34  73 SW7       30.24S
$$
MNZ065>067-074>077-082>085-091>093-161500-
   South Central Minnesota

CITY           SKY/WX    TMP DP  RH WIND       PRES   REMARKS
NEW ULM          N/A     39  34  81 SW5       30.24S
ST JAMES       SUNNY     39  36  87 S5        30.25F
FAIRMONT       SUNNY     43  36  76 SW5       30.26S
GLENCOE        SUNNY     40  39  97 SW5       30.22S
FARIBAULT      SUNNY     39  36  87 CALM      30.25S
OWATONNA       SUNNY     39  36  87 SW3       30.25S
WASECA         SUNNY     36  34  93 SW5       30.26S
ALBERT LEA     SUNNY     43  39  87 SW3       30.27R
$$
MNZ078>079-086>088-094>096-161500-
   Southeast Minnesota

CITY           SKY/WX    TMP DP  RH WIND       PRES   REMARKS
ROCHESTER      SUNNY     42  38  85 SW7       30.26R
RED WING       SUNNY     43  39  87 CALM      30.23S
STANTON        SUNNY     40  37  86 S6        30.23S
DODGE CENTER   SUNNY     39  36  87 SW8       30.25S
WINONA         SUNNY     39  37  93 CALM      30.27S
AUSTIN         SUNNY     37  36  93 CALM      30.26S
PRESTON        SUNNY     40  35  82 SW6       30.27S
$$
ABBREVIATIONS USED IN REMARKS
   TC - TEMPERATURES IN CELSIUS
  WCI - WIND CHILL INDEX
   HX - HEAT INDEX
  VSB - VISIBILITY
$$




USA.gov is the U.S. government's official web portal to all federal, state and local government web resources and services.